Year,Month,Day,Hour,Minute,Value (Times are PST for temperature in C)
2018,02,22,00,00,-1.40
2018,02,22,00,01,-1.40
2018,02,22,00,02,-1.40
2018,02,22,00,03,-1.40
2018,02,22,00,04,-1.40
2018,02,22,00,05,-1.40
2018,02,22,00,06,-1.40
2018,02,22,00,07,-1.40
2018,02,22,00,08,-1.40
2018,02,22,00,09,-1.40
2018,02,22,00,10,-1.40
2018,02,22,00,11,-1.40
2018,02,22,00,12,-1.40
2018,02,22,00,13,-1.40
2018,02,22,00,14,-1.40
2018,02,22,00,15,-1.40
2018,02,22,00,16,-1.40
2018,02,22,00,17,-1.40
2018,02,22,00,18,-1.40
2018,02,22,00,19,-1.40
2018,02,22,00,20,-1.50
2018,02,22,00,21,-1.50
2018,02,22,00,22,-1.50
2018,02,22,00,23,-1.40
2018,02,22,00,24,-1.40
2018,02,22,00,25,-1.50
2018,02,22,00,26,-1.50
2018,02,22,00,27,-1.50
2018,02,22,00,28,-1.50
2018,02,22,00,29,-1.50
2018,02,22,00,30,-1.50
2018,02,22,00,31,-1.50
2018,02,22,00,32,-1.60
2018,02,22,00,33,-1.60
2018,02,22,00,34,-1.60
2018,02,22,00,35,-1.60
2018,02,22,00,36,-1.60
2018,02,22,00,37,-1.60
2018,02,22,00,38,-1.60
2018,02,22,00,39,-1.60
2018,02,22,00,40,-1.60
2018,02,22,00,41,-1.60
2018,02,22,00,42,-1.60
2018,02,22,00,43,-1.60
2018,02,22,00,44,-1.60
2018,02,22,00,45,-1.60
2018,02,22,00,46,-1.60
2018,02,22,00,47,-1.60
2018,02,22,00,48,-1.60
2018,02,22,00,49,-1.60
2018,02,22,00,50,-1.60
2018,02,22,00,51,-1.60
2018,02,22,00,52,-1.60
2018,02,22,00,53,-1.70
2018,02,22,00,54,-1.70
2018,02,22,00,55,-1.70
2018,02,22,00,56,-1.70
2018,02,22,00,57,-1.70
2018,02,22,00,58,-1.70
2018,02,22,00,59,-1.70
2018,02,22,01,00,-1.70
2018,02,22,01,01,-1.70
2018,02,22,01,02,-1.70
2018,02,22,01,03,-1.70
2018,02,22,01,04,-1.70
2018,02,22,01,05,-1.70
2018,02,22,01,06,-1.70
2018,02,22,01,07,-1.70
2018,02,22,01,08,-1.70
2018,02,22,01,09,-1.70
2018,02,22,01,10,-1.70
2018,02,22,01,11,-1.70
2018,02,22,01,12,-1.70
2018,02,22,01,13,-1.70
2018,02,22,01,14,-1.70
2018,02,22,01,15,-1.70
2018,02,22,01,16,-1.70
2018,02,22,01,17,-1.70
2018,02,22,01,18,-1.70
2018,02,22,01,19,-1.70
2018,02,22,01,20,-1.70
2018,02,22,01,21,-1.70
2018,02,22,01,22,-1.70
2018,02,22,01,23,-1.70
2018,02,22,01,24,-1.70
2018,02,22,01,25,-1.70
2018,02,22,01,26,-1.70
2018,02,22,01,27,-1.60
2018,02,22,01,28,-1.60
2018,02,22,01,29,-1.60
2018,02,22,01,30,-1.70
2018,02,22,01,31,-1.70
2018,02,22,01,32,-1.70
2018,02,22,01,33,-1.70
2018,02,22,01,34,-1.70
2018,02,22,01,35,-1.70
2018,02,22,01,36,-1.80
2018,02,22,01,37,-1.80
2018,02,22,01,38,-1.80
2018,02,22,01,39,-1.80
2018,02,22,01,40,-1.80
2018,02,22,01,41,-1.80
2018,02,22,01,42,-1.80
2018,02,22,01,43,-1.80
2018,02,22,01,44,-1.80
2018,02,22,01,45,-1.80
2018,02,22,01,46,-1.80
2018,02,22,01,47,-1.80
2018,02,22,01,48,-1.90
2018,02,22,01,49,-1.90
2018,02,22,01,50,-1.90
2018,02,22,01,51,-1.90
2018,02,22,01,52,-1.90
2018,02,22,01,53,-2.00
2018,02,22,01,54,-2.00
2018,02,22,01,55,-2.00
2018,02,22,01,56,-2.00
2018,02,22,01,57,-2.00
2018,02,22,01,58,-2.00
2018,02,22,01,59,-2.00
2018,02,22,02,00,-2.00
2018,02,22,02,01,-2.10
2018,02,22,02,02,-2.10
2018,02,22,02,03,-2.10
2018,02,22,02,04,-2.10
2018,02,22,02,05,-2.10
2018,02,22,02,06,-2.20
2018,02,22,02,07,-2.20
2018,02,22,02,08,-2.20
2018,02,22,02,09,-2.20
2018,02,22,02,10,-2.20
2018,02,22,02,11,-2.20
2018,02,22,02,12,-2.30
2018,02,22,02,13,-2.30
2018,02,22,02,14,-2.30
2018,02,22,02,15,-2.30
2018,02,22,02,16,-2.30
2018,02,22,02,17,-2.30
2018,02,22,02,18,-2.30
2018,02,22,02,19,-2.30
2018,02,22,02,20,-2.30
2018,02,22,02,21,-2.30
2018,02,22,02,22,-2.30
2018,02,22,02,23,-2.30
2018,02,22,02,24,-2.30
2018,02,22,02,25,-2.30
2018,02,22,02,26,-2.30
2018,02,22,02,27,-2.30
2018,02,22,02,28,-2.30
2018,02,22,02,29,-2.40
2018,02,22,02,30,-2.40
2018,02,22,02,31,-2.40
2018,02,22,02,32,-2.40
2018,02,22,02,33,-2.40
2018,02,22,02,34,-2.40
2018,02,22,02,35,-2.40
2018,02,22,02,36,-2.40
2018,02,22,02,37,-2.30
2018,02,22,02,38,-2.30
2018,02,22,02,39,-2.30
2018,02,22,02,40,-2.30
2018,02,22,02,41,-2.30
2018,02,22,02,42,-2.30
2018,02,22,02,43,-2.30
2018,02,22,02,44,-2.30
2018,02,22,02,45,-2.30
2018,02,22,02,46,-2.30
2018,02,22,02,47,-2.20
2018,02,22,02,48,-2.20
2018,02,22,02,49,-2.20
2018,02,22,02,50,-2.20
2018,02,22,02,51,-2.20
2018,02,22,02,52,-2.10
2018,02,22,02,53,-2.10
2018,02,22,02,54,-2.10
2018,02,22,02,55,-2.10
2018,02,22,02,56,-2.10
2018,02,22,02,57,-2.00
2018,02,22,02,58,-2.00
2018,02,22,02,59,-2.00
2018,02,22,03,00,-2.00
2018,02,22,03,01,-2.00
2018,02,22,03,02,-2.00
2018,02,22,03,03,-1.90
2018,02,22,03,04,-2.00
2018,02,22,03,05,-2.00
2018,02,22,03,06,-2.00
2018,02,22,03,07,-2.00
2018,02,22,03,08,-2.00
2018,02,22,03,09,-2.00
2018,02,22,03,10,-2.10
2018,02,22,03,11,-2.10
2018,02,22,03,12,-2.10
2018,02,22,03,13,-2.10
2018,02,22,03,14,-2.20
2018,02,22,03,15,-2.20
2018,02,22,03,16,-2.20
2018,02,22,03,17,-2.20
2018,02,22,03,18,-2.20
2018,02,22,03,19,-2.20
2018,02,22,03,20,-2.20
2018,02,22,03,21,-2.20
2018,02,22,03,22,-2.20
2018,02,22,03,23,-2.20
2018,02,22,03,24,-2.20
2018,02,22,03,25,-2.20
2018,02,22,03,26,-2.20
2018,02,22,03,27,-2.20
2018,02,22,03,28,-2.20
2018,02,22,03,29,-2.20
2018,02,22,03,30,-2.20
2018,02,22,03,31,-2.20
2018,02,22,03,32,-2.20
2018,02,22,03,33,-2.30
2018,02,22,03,34,-2.30
2018,02,22,03,35,-2.30
2018,02,22,03,36,-2.30
2018,02,22,03,37,-2.30
2018,02,22,03,38,-2.30
2018,02,22,03,39,-2.30
2018,02,22,03,40,-2.30
2018,02,22,03,41,-2.30
2018,02,22,03,42,-2.30
2018,02,22,03,43,-2.30
2018,02,22,03,44,-2.30
2018,02,22,03,45,-2.30
2018,02,22,03,46,-2.30
2018,02,22,03,47,-2.30
2018,02,22,03,48,-2.40
2018,02,22,03,49,-2.40
2018,02,22,03,50,-2.40
2018,02,22,03,51,-2.40
2018,02,22,03,52,-2.40
2018,02,22,03,53,-2.40
2018,02,22,03,54,-2.40
2018,02,22,03,55,-2.40
2018,02,22,03,56,-2.40
2018,02,22,03,57,-2.40
2018,02,22,03,58,-2.40
2018,02,22,03,59,-2.40
2018,02,22,04,00,-2.40
2018,02,22,04,01,-2.40
2018,02,22,04,02,-2.40
2018,02,22,04,03,-2.50
2018,02,22,04,04,-2.50
2018,02,22,04,05,-2.50
2018,02,22,04,06,-2.50
2018,02,22,04,07,-2.50
2018,02,22,04,08,-2.50
2018,02,22,04,09,-2.40
2018,02,22,04,10,-2.40
2018,02,22,04,11,-2.40
2018,02,22,04,12,-2.40
2018,02,22,04,13,-2.40
2018,02,22,04,14,-2.40
2018,02,22,04,15,-2.40
2018,02,22,04,16,-2.40
2018,02,22,04,17,-2.40
2018,02,22,04,18,-2.40
2018,02,22,04,19,-2.40
2018,02,22,04,20,-2.40
2018,02,22,04,21,-2.40
2018,02,22,04,22,-2.40
2018,02,22,04,23,-2.40
2018,02,22,04,24,-2.40
2018,02,22,04,25,-2.40
2018,02,22,04,26,-2.40
2018,02,22,04,27,-2.40
2018,02,22,04,28,-2.40
2018,02,22,04,29,-2.40
2018,02,22,04,30,-2.40
2018,02,22,04,31,-2.40
2018,02,22,04,32,-2.40
2018,02,22,04,33,-2.40
2018,02,22,04,34,-2.40
2018,02,22,04,35,-2.40
2018,02,22,04,36,-2.40
2018,02,22,07,59,-1.20
2018,02,22,08,00,-1.10
2018,02,22,08,01,-1.10
2018,02,22,08,02,-1.10
2018,02,22,08,03,-1.10
2018,02,22,08,04,-1.00
2018,02,22,08,05,-0.90
2018,02,22,08,06,-0.90
2018,02,22,08,07,-0.80
2018,02,22,08,08,-0.70
2018,02,22,08,09,-0.70
2018,02,22,08,10,-0.70
2018,02,22,08,11,-0.70
2018,02,22,08,12,-0.60
2018,02,22,08,13,-0.70
2018,02,22,08,14,-0.60
2018,02,22,08,15,-0.70
2018,02,22,08,16,-0.60
2018,02,22,08,17,-0.60
2018,02,22,08,18,-0.60
2018,02,22,08,19,-0.60
2018,02,22,08,20,-0.60
2018,02,22,08,21,-0.60
2018,02,22,08,22,-0.60
2018,02,22,08,23,-0.40
2018,02,22,08,24,-0.40
2018,02,22,08,25,-0.40
2018,02,22,08,26,-0.40
2018,02,22,08,27,-0.30
2018,02,22,08,28,-0.30
2018,02,22,08,29,-0.30
2018,02,22,08,30,-0.30
2018,02,22,08,31,-0.30
2018,02,22,08,32,-0.20
2018,02,22,08,33,-0.10
2018,02,22,08,34,-0.10
2018,02,22,08,35,-0.10
2018,02,22,08,36,-0.10
2018,02,22,08,37,-0.10
2018,02,22,08,38,-0.10
2018,02,22,08,39,0.00
2018,02,22,08,40,0.10
2018,02,22,08,41,0.10
2018,02,22,08,42,0.10
2018,02,22,08,43,0.10
2018,02,22,08,44,0.10
2018,02,22,08,45,0.20
2018,02,22,08,46,0.20
2018,02,22,08,47,0.20
2018,02,22,08,48,0.20
2018,02,22,08,49,0.20
2018,02,22,08,50,0.20
2018,02,22,08,51,0.20
2018,02,22,08,52,0.30
2018,02,22,08,53,0.40
2018,02,22,08,54,0.40
2018,02,22,08,55,0.40
2018,02,22,08,56,0.40
2018,02,22,08,57,0.40
2018,02,22,08,58,0.40
2018,02,22,08,59,0.40
2018,02,22,09,00,0.40
2018,02,22,09,01,0.40
2018,02,22,09,02,0.30
2018,02,22,09,03,0.30
2018,02,22,09,04,0.30
2018,02,22,09,05,0.30
2018,02,22,09,06,0.30
2018,02,22,09,07,0.40
2018,02,22,09,08,0.40
2018,02,22,09,09,0.40
2018,02,22,09,10,0.40
2018,02,22,09,11,0.40
2018,02,22,09,12,0.40
2018,02,22,09,13,0.40
2018,02,22,09,14,0.50
2018,02,22,09,15,0.50
2018,02,22,09,16,0.60
2018,02,22,09,17,0.70
2018,02,22,09,18,0.80
2018,02,22,09,19,0.90
2018,02,22,09,20,0.90
2018,02,22,09,21,0.90
2018,02,22,09,22,1.00
2018,02,22,09,23,1.10
2018,02,22,09,24,1.10
2018,02,22,09,25,1.10
2018,02,22,09,26,1.00
2018,02,22,09,27,0.90
2018,02,22,09,28,0.80
2018,02,22,09,29,0.80
2018,02,22,09,30,0.70
2018,02,22,09,31,0.60
2018,02,22,09,32,0.50
2018,02,22,09,33,0.40
2018,02,22,09,34,0.30
2018,02,22,09,35,0.30
2018,02,22,09,36,0.30
2018,02,22,09,37,0.20
2018,02,22,09,38,0.20
2018,02,22,09,39,0.20
2018,02,22,09,40,0.30
2018,02,22,09,41,0.40
2018,02,22,09,42,0.40
2018,02,22,09,43,0.40
2018,02,22,09,44,0.40
2018,02,22,09,45,0.40
2018,02,22,09,46,0.40
2018,02,22,09,47,0.40
2018,02,22,09,48,0.30
2018,02,22,09,49,0.20
2018,02,22,09,50,0.20
2018,02,22,09,51,0.20
2018,02,22,09,52,0.20
2018,02,22,09,53,0.20
2018,02,22,09,54,0.30
2018,02,22,09,55,0.30
2018,02,22,09,56,0.30
2018,02,22,09,57,0.30
2018,02,22,09,58,0.40
2018,02,22,09,59,0.40
2018,02,22,10,00,0.50
2018,02,22,10,01,0.50
2018,02,22,10,02,0.50
2018,02,22,10,03,0.60
2018,02,22,10,04,0.60
2018,02,22,10,05,0.60
2018,02,22,10,06,0.50
2018,02,22,10,07,0.50
2018,02,22,10,08,0.50
2018,02,22,10,09,0.50
2018,02,22,10,10,0.50
2018,02,22,10,11,0.60
2018,02,22,10,12,0.60
2018,02,22,10,13,0.60
2018,02,22,10,14,0.70
2018,02,22,10,15,0.80
2018,02,22,10,16,0.80
2018,02,22,10,17,0.80
2018,02,22,10,18,0.90
2018,02,22,10,19,0.90
2018,02,22,10,20,1.00
2018,02,22,10,21,1.10
2018,02,22,10,22,1.10
2018,02,22,10,23,1.20
2018,02,22,10,24,1.20
2018,02,22,10,25,1.20
2018,02,22,10,26,1.20
2018,02,22,10,27,1.10
2018,02,22,10,28,1.10
2018,02,22,10,29,1.10
2018,02,22,10,30,1.00
2018,02,22,10,31,1.00
2018,02,22,10,32,1.00
2018,02,22,10,33,1.00
2018,02,22,10,34,1.00
2018,02,22,10,35,1.00
2018,02,22,10,36,1.00
2018,02,22,10,37,1.00
2018,02,22,10,38,1.10
2018,02,22,10,39,1.20
2018,02,22,10,40,1.20
2018,02,22,10,41,1.20
2018,02,22,10,42,1.30
2018,02,22,10,43,1.30
2018,02,22,10,44,1.30
2018,02,22,10,45,1.20
2018,02,22,10,46,1.00
2018,02,22,10,47,1.00
2018,02,22,10,48,0.90
2018,02,22,10,49,0.80
2018,02,22,10,50,0.80
2018,02,22,10,51,0.80
2018,02,22,10,52,0.80
2018,02,22,10,53,0.80
2018,02,22,10,54,0.80
2018,02,22,10,55,0.80
2018,02,22,10,56,0.80
2018,02,22,10,57,0.80
2018,02,22,10,58,0.80
2018,02,22,10,59,0.90
2018,02,22,11,00,0.90
2018,02,22,11,01,0.90
2018,02,22,11,02,0.90
2018,02,22,11,03,1.00
2018,02,22,11,04,1.00
2018,02,22,11,05,1.00
2018,02,22,11,06,1.00
2018,02,22,11,07,1.10
2018,02,22,11,08,1.10
2018,02,22,11,09,1.10
2018,02,22,11,10,1.10
2018,02,22,11,11,1.00
2018,02,22,11,12,1.00
2018,02,22,11,13,1.00
2018,02,22,11,14,1.10
2018,02,22,11,15,1.10
2018,02,22,11,16,1.10
2018,02,22,11,17,1.20
2018,02,22,11,18,1.20
2018,02,22,11,19,1.20
2018,02,22,11,20,1.20
2018,02,22,11,21,1.30
2018,02,22,11,22,1.30
2018,02,22,11,23,1.30
2018,02,22,11,24,1.30
2018,02,22,11,25,1.40
2018,02,22,11,26,1.40
2018,02,22,11,27,1.40
2018,02,22,11,28,1.50
2018,02,22,11,29,1.50
2018,02,22,11,30,1.50
2018,02,22,11,31,1.60
2018,02,22,11,32,1.60
2018,02,22,11,33,1.60
2018,02,22,11,34,1.50
2018,02,22,11,35,1.50
2018,02,22,11,36,1.50
2018,02,22,11,37,1.50
2018,02,22,11,38,1.30
2018,02,22,11,39,1.30
2018,02,22,11,40,1.30
2018,02,22,11,41,1.30
2018,02,22,11,42,1.30
2018,02,22,11,43,1.30
2018,02,22,11,44,1.30
2018,02,22,11,45,1.30
2018,02,22,11,46,1.30
2018,02,22,11,47,1.30
2018,02,22,11,48,1.30
2018,02,22,11,49,1.30
2018,02,22,11,50,1.40
2018,02,22,11,51,1.40
2018,02,22,11,52,1.30
2018,02,22,11,53,1.30
2018,02,22,11,54,1.30
2018,02,22,11,55,1.30
2018,02,22,11,56,1.30
2018,02,22,11,57,1.30
2018,02,22,11,58,1.30
2018,02,22,11,59,1.30
2018,02,22,12,00,1.30
2018,02,22,12,01,1.30
2018,02,22,12,02,1.30
2018,02,22,12,03,1.30
2018,02,22,12,04,1.30
2018,02,22,12,05,1.30
2018,02,22,12,06,1.30
2018,02,22,12,07,1.30
2018,02,22,12,08,1.30
2018,02,22,12,09,1.20
2018,02,22,12,10,1.20
2018,02,22,12,11,1.20
2018,02,22,12,12,1.20
2018,02,22,12,13,1.20
2018,02,22,12,14,1.20
2018,02,22,12,15,1.30
2018,02,22,12,16,1.30
2018,02,22,12,17,1.30
2018,02,22,12,18,1.40
2018,02,22,12,19,1.50
2018,02,22,12,20,1.60
2018,02,22,12,21,1.60
2018,02,22,12,22,1.60
2018,02,22,12,23,1.50
2018,02,22,12,24,1.40
2018,02,22,12,25,1.40
2018,02,22,12,26,1.30
2018,02,22,12,27,1.20
2018,02,22,12,28,1.10
2018,02,22,12,29,1.10
2018,02,22,12,30,1.00
2018,02,22,12,31,1.00
2018,02,22,12,32,1.10
2018,02,22,12,33,1.20
2018,02,22,12,34,1.20
2018,02,22,12,35,1.30
2018,02,22,12,36,1.30
2018,02,22,12,37,1.30
2018,02,22,12,38,1.30
2018,02,22,12,39,1.30
2018,02,22,12,40,1.30
2018,02,22,12,41,1.30
2018,02,22,12,42,1.30
2018,02,22,12,43,1.30
2018,02,22,12,44,1.30
2018,02,22,12,45,1.40
2018,02,22,12,46,1.50
2018,02,22,12,47,1.50
2018,02,22,12,48,1.50
2018,02,22,12,49,1.50
2018,02,22,12,50,1.50
2018,02,22,12,51,1.60
2018,02,22,12,52,1.60
2018,02,22,12,53,1.50
2018,02,22,12,54,1.50
2018,02,22,12,55,1.40
2018,02,22,12,56,1.50
2018,02,22,12,57,1.50
2018,02,22,12,58,1.60
2018,02,22,12,59,1.70
2018,02,22,13,00,1.70
2018,02,22,13,01,1.70
2018,02,22,13,02,1.70
2018,02,22,13,03,1.80
2018,02,22,13,04,1.80
2018,02,22,13,05,1.80
2018,02,22,13,06,1.80
2018,02,22,13,07,1.80
2018,02,22,13,08,1.80
2018,02,22,13,09,1.90
2018,02,22,13,10,2.00
2018,02,22,13,11,2.00
2018,02,22,13,12,2.10
2018,02,22,13,13,2.10
2018,02,22,13,14,2.20
2018,02,22,13,15,2.20
2018,02,22,13,16,2.10
2018,02,22,13,17,2.10
2018,02,22,13,18,2.00
2018,02,22,13,19,2.00
2018,02,22,13,20,2.00
2018,02,22,13,21,2.00
2018,02,22,13,22,2.00
2018,02,22,13,23,2.10
2018,02,22,13,24,2.10
2018,02,22,13,25,2.10
2018,02,22,13,26,2.10
2018,02,22,13,27,2.20
2018,02,22,13,28,2.20
2018,02,22,13,29,2.30
2018,02,22,13,30,2.30
2018,02,22,13,31,2.30
2018,02,22,13,32,2.40
2018,02,22,13,33,2.30
2018,02,22,13,34,2.30
2018,02,22,13,35,2.30
2018,02,22,13,36,2.40
2018,02,22,13,37,2.40
2018,02,22,13,38,2.40
2018,02,22,13,39,2.30
2018,02,22,13,40,2.20
2018,02,22,13,41,2.20
2018,02,22,13,42,2.20
2018,02,22,13,43,2.20
2018,02,22,13,44,2.20
2018,02,22,13,45,2.20
2018,02,22,13,46,2.20
2018,02,22,13,47,2.10
2018,02,22,13,48,2.10
2018,02,22,13,49,2.10
2018,02,22,13,50,2.10
2018,02,22,13,51,2.20
2018,02,22,13,52,2.20
2018,02,22,13,53,2.20
2018,02,22,13,54,2.20
2018,02,22,13,55,2.30
2018,02,22,13,56,2.30
2018,02,22,13,57,2.30
2018,02,22,13,58,2.30
2018,02,22,13,59,2.20
2018,02,22,14,00,2.10
2018,02,22,14,01,2.00
2018,02,22,14,02,2.00
2018,02,22,14,03,2.00
2018,02,22,14,04,1.90
2018,02,22,14,05,1.90
2018,02,22,14,06,1.90
2018,02,22,14,07,1.90
2018,02,22,14,08,1.90
2018,02,22,14,09,1.80
2018,02,22,14,10,1.80
2018,02,22,14,11,1.80
2018,02,22,14,12,1.80
2018,02,22,14,13,1.80
2018,02,22,14,14,1.80
2018,02,22,14,15,1.90
2018,02,22,14,16,1.90
2018,02,22,14,17,2.00
2018,02,22,14,18,2.00
2018,02,22,14,19,2.10
2018,02,22,14,20,2.20
2018,02,22,14,21,2.20
2018,02,22,14,22,2.10
2018,02,22,14,23,2.10
2018,02,22,14,24,2.10
2018,02,22,14,25,2.10
2018,02,22,14,26,2.10
2018,02,22,14,27,2.10
2018,02,22,14,28,2.10
2018,02,22,14,29,2.20
2018,02,22,14,30,2.20
2018,02,22,14,31,2.20
2018,02,22,14,32,2.20
2018,02,22,14,33,2.20
2018,02,22,14,34,2.10
2018,02,22,14,35,2.10
2018,02,22,14,36,2.10
2018,02,22,14,37,2.10
2018,02,22,14,38,2.20
2018,02,22,14,39,2.20
2018,02,22,14,40,2.20
2018,02,22,14,41,2.20
2018,02,22,14,42,2.20
2018,02,22,14,43,2.20
2018,02,22,14,44,2.20
2018,02,22,14,45,2.20
2018,02,22,14,46,2.20
2018,02,22,14,47,2.20
2018,02,22,14,48,2.10
2018,02,22,14,49,2.10
2018,02,22,14,50,2.10
2018,02,22,14,51,2.10
2018,02,22,14,52,2.10
2018,02,22,14,53,2.20
2018,02,22,14,54,2.20
2018,02,22,14,55,2.30
2018,02,22,14,56,2.40
2018,02,22,14,57,2.50
2018,02,22,14,58,2.60
2018,02,22,14,59,2.60
2018,02,22,15,00,2.70
2018,02,22,15,01,2.70
2018,02,22,15,02,2.80
2018,02,22,15,03,2.80
2018,02,22,15,04,2.80
2018,02,22,15,05,2.80
2018,02,22,15,06,2.70
2018,02,22,15,07,2.60
2018,02,22,15,08,2.60
2018,02,22,15,09,2.60
2018,02,22,15,10,2.50
2018,02,22,15,11,2.50
2018,02,22,15,12,2.50
2018,02,22,15,13,2.50
2018,02,22,15,14,2.50
2018,02,22,15,15,2.50
2018,02,22,15,16,2.40
2018,02,22,15,17,2.40
2018,02,22,15,18,2.40
2018,02,22,15,19,2.50
2018,02,22,15,20,2.50
2018,02,22,15,21,2.60
2018,02,22,15,22,2.60
2018,02,22,15,23,2.60
2018,02,22,15,24,2.60
2018,02,22,15,25,2.60
2018,02,22,15,26,2.50
2018,02,22,15,27,2.50
2018,02,22,15,28,2.40
2018,02,22,15,29,2.40
2018,02,22,15,30,2.30
2018,02,22,15,31,2.30
2018,02,22,15,32,2.30
2018,02,22,15,33,2.30
2018,02,22,15,34,2.30
2018,02,22,15,35,2.30
2018,02,22,15,36,2.30
2018,02,22,15,37,2.30
2018,02,22,15,38,2.30
2018,02,22,15,39,2.30
2018,02,22,15,40,2.30
2018,02,22,15,41,2.40
2018,02,22,15,42,2.40
2018,02,22,15,43,2.50
2018,02,22,15,44,2.50
2018,02,22,15,45,2.60
2018,02,22,15,46,2.60
2018,02,22,15,47,2.70
2018,02,22,15,48,2.70
2018,02,22,15,49,2.70
2018,02,22,15,50,2.70
2018,02,22,15,51,2.60
2018,02,22,15,52,2.50
2018,02,22,15,53,2.50
2018,02,22,15,54,2.50
2018,02,22,15,55,2.40
2018,02,22,15,56,2.40
2018,02,22,15,57,2.30
2018,02,22,15,58,2.30
2018,02,22,15,59,2.30
2018,02,22,16,00,2.30
2018,02,22,16,01,2.20
2018,02,22,16,02,2.20
2018,02,22,16,03,2.20
2018,02,22,16,04,2.20
2018,02,22,16,05,2.20
2018,02,22,16,06,2.20
2018,02,22,16,07,2.20
2018,02,22,16,08,2.20
2018,02,22,16,09,2.20
2018,02,22,16,10,2.20
2018,02,22,16,11,2.20
2018,02,22,16,12,2.20
2018,02,22,16,13,2.20
2018,02,22,16,14,2.10
2018,02,22,16,15,2.10
2018,02,22,16,16,2.10
2018,02,22,16,17,2.00
2018,02,22,16,18,2.00
2018,02,22,16,19,2.00
2018,02,22,16,20,1.90
2018,02,22,16,21,1.90
2018,02,22,16,22,1.90
2018,02,22,16,23,1.90
2018,02,22,16,24,1.80
2018,02,22,16,25,1.80
2018,02,22,16,26,1.80
2018,02,22,16,27,1.80
2018,02,22,16,28,1.80
2018,02,22,16,29,1.80
2018,02,22,16,30,1.80
2018,02,22,16,31,1.80
2018,02,22,16,32,1.70
2018,02,22,16,33,1.70
2018,02,22,16,34,1.60
2018,02,22,16,35,1.60
2018,02,22,16,36,1.60
2018,02,22,16,37,1.50
2018,02,22,16,38,1.50
2018,02,22,16,39,1.50
2018,02,22,16,40,1.50
2018,02,22,16,41,1.40
2018,02,22,16,42,1.40
2018,02,22,16,43,1.40
2018,02,22,16,44,1.40
2018,02,22,16,45,1.40
2018,02,22,16,46,1.30
2018,02,22,16,47,1.30
2018,02,22,16,48,1.30
2018,02,22,16,49,1.20
2018,02,22,16,50,1.10
2018,02,22,16,51,1.10
2018,02,22,16,52,1.00
2018,02,22,16,53,1.00
2018,02,22,16,54,0.90
2018,02,22,16,55,0.80
2018,02,22,16,56,0.80
2018,02,22,16,57,0.70
2018,02,22,16,58,0.60
2018,02,22,16,59,0.60
2018,02,22,17,00,0.50
2018,02,22,17,01,0.50
2018,02,22,17,02,0.40
2018,02,22,17,03,0.40
2018,02,22,17,04,0.40
2018,02,22,17,05,0.30
2018,02,22,17,06,0.30
2018,02,22,17,07,0.30
2018,02,22,17,08,0.20
2018,02,22,17,09,0.20
2018,02,22,17,10,0.10
2018,02,22,17,11,0.10
2018,02,22,17,12,0.10
2018,02,22,17,13,0.10
2018,02,22,17,14,-0.10
2018,02,22,17,15,-0.10
2018,02,22,17,16,-0.10
2018,02,22,17,17,-0.10
2018,02,22,17,18,-0.10
2018,02,22,17,19,-0.10
2018,02,22,17,20,-0.10
2018,02,22,17,21,-0.10
2018,02,22,17,22,-0.10
2018,02,22,17,23,-0.10
2018,02,22,17,24,-0.10
2018,02,22,17,25,-0.10
2018,02,22,17,26,-0.10
2018,02,22,17,27,-0.10
2018,02,22,17,28,-0.10
2018,02,22,17,29,-0.20
2018,02,22,17,30,-0.20
2018,02,22,17,31,-0.20
2018,02,22,17,32,-0.20
2018,02,22,17,33,-0.30
2018,02,22,17,34,-0.30
2018,02,22,17,35,-0.30
2018,02,22,17,36,-0.30
2018,02,22,17,37,-0.40
2018,02,22,17,38,-0.40
2018,02,22,17,39,-0.40
2018,02,22,17,40,-0.40
2018,02,22,17,41,-0.40
2018,02,22,17,42,-0.60
2018,02,22,17,43,-0.60
2018,02,22,17,44,-0.60
2018,02,22,17,45,-0.60
2018,02,22,17,46,-0.60
2018,02,22,17,47,-0.60
2018,02,22,17,48,-0.70
2018,02,22,17,49,-0.70
2018,02,22,17,50,-0.70
2018,02,22,17,51,-0.80
2018,02,22,17,52,-0.80
2018,02,22,17,53,-0.80
2018,02,22,17,54,-0.80
2018,02,22,17,55,-0.90
2018,02,22,17,56,-0.90
2018,02,22,17,57,-0.90
2018,02,22,17,58,-0.90
2018,02,22,17,59,-0.90
2018,02,22,18,00,-0.90
2018,02,22,18,01,-0.90
2018,02,22,18,02,-1.10
2018,02,22,18,03,-1.10
2018,02,22,18,04,-1.10
2018,02,22,18,05,-1.10
2018,02,22,18,06,-1.10
2018,02,22,18,07,-1.10
2018,02,22,18,08,-1.10
2018,02,22,18,09,-1.10
2018,02,22,18,10,-1.10
2018,02,22,18,11,-1.20
2018,02,22,18,12,-1.20
2018,02,22,18,13,-1.20
2018,02,22,18,14,-1.20
2018,02,22,18,15,-1.20
2018,02,22,18,16,-1.30
2018,02,22,18,17,-1.30
2018,02,22,18,18,-1.30
2018,02,22,18,19,-1.30
2018,02,22,18,20,-1.30
2018,02,22,18,21,-1.40
2018,02,22,18,22,-1.40
2018,02,22,18,23,-1.40
2018,02,22,18,24,-1.40
2018,02,22,18,25,-1.40
2018,02,22,18,26,-1.40
2018,02,22,18,27,-1.40
2018,02,22,18,28,-1.40
2018,02,22,18,29,-1.40
2018,02,22,18,30,-1.40
2018,02,22,18,31,-1.40
2018,02,22,18,32,-1.40
2018,02,22,18,33,-1.40
2018,02,22,18,34,-1.40
2018,02,22,18,35,-1.40
2018,02,22,18,36,-1.40
2018,02,22,18,37,-1.40
2018,02,22,18,38,-1.50
2018,02,22,18,39,-1.50
2018,02,22,18,40,-1.50
2018,02,22,18,41,-1.50
2018,02,22,18,42,-1.60
2018,02,22,18,43,-1.60
2018,02,22,18,44,-1.60
2018,02,22,18,45,-1.60
2018,02,22,18,46,-1.60
2018,02,22,18,47,-1.60
2018,02,22,18,48,-1.70
2018,02,22,18,49,-1.70
2018,02,22,18,50,-1.70
2018,02,22,18,51,-1.70
2018,02,22,18,52,-1.70
2018,02,22,18,53,-1.70
2018,02,22,18,54,-1.70
2018,02,22,18,55,-1.70
2018,02,22,18,56,-1.70
2018,02,22,18,57,-1.70
2018,02,22,18,58,-1.70
2018,02,22,18,59,-1.70
2018,02,22,19,00,-1.70
2018,02,22,19,01,-1.70
2018,02,22,19,02,-1.70
2018,02,22,19,03,-1.70
2018,02,22,19,04,-1.80
2018,02,22,19,05,-1.80
2018,02,22,19,06,-1.80
2018,02,22,19,07,-1.80
2018,02,22,19,08,-1.80
2018,02,22,19,09,-1.80
2018,02,22,19,10,-1.80
2018,02,22,19,11,-1.80
2018,02,22,19,12,-1.80
2018,02,22,19,13,-1.80
2018,02,22,19,14,-1.80
2018,02,22,19,15,-1.80
2018,02,22,19,16,-1.80
2018,02,22,19,17,-1.80
2018,02,22,19,18,-1.80
2018,02,22,19,19,-1.80
2018,02,22,19,20,-1.80
2018,02,22,19,21,-1.80
2018,02,22,19,22,-1.80
2018,02,22,19,23,-1.80
2018,02,22,19,24,-1.80
2018,02,22,19,25,-1.80
2018,02,22,19,26,-1.80
2018,02,22,19,27,-1.80
2018,02,22,19,28,-1.80
2018,02,22,19,29,-1.80
2018,02,22,19,30,-1.80
2018,02,22,19,31,-1.80
2018,02,22,19,32,-1.80
2018,02,22,19,33,-1.80
2018,02,22,19,34,-1.80
2018,02,22,19,35,-1.80
2018,02,22,19,36,-1.80
2018,02,22,19,37,-1.80
2018,02,22,19,38,-1.80
2018,02,22,19,39,-1.80
2018,02,22,19,40,-1.80
2018,02,22,19,41,-1.90
2018,02,22,19,42,-1.90
2018,02,22,19,43,-1.90
2018,02,22,19,44,-1.90
2018,02,22,19,45,-1.90
2018,02,22,19,46,-1.90
2018,02,22,19,47,-1.90
2018,02,22,19,48,-1.90
2018,02,22,19,49,-1.80
2018,02,22,19,50,-1.80
2018,02,22,19,51,-1.80
2018,02,22,19,52,-1.80
2018,02,22,19,53,-1.80
2018,02,22,19,54,-1.80
2018,02,22,19,55,-1.80
2018,02,22,19,56,-1.80
2018,02,22,19,57,-1.80
2018,02,22,19,58,-1.80
2018,02,22,19,59,-1.80
2018,02,22,20,00,-1.80
2018,02,22,20,01,-1.80
2018,02,22,20,02,-1.80
2018,02,22,20,03,-1.80
2018,02,22,20,04,-1.80
2018,02,22,20,05,-1.80
2018,02,22,20,06,-1.80
2018,02,22,20,07,-1.80
2018,02,22,20,08,-1.80
2018,02,22,20,09,-1.80
2018,02,22,20,10,-1.80
2018,02,22,20,11,-1.80
2018,02,22,20,12,-1.80
2018,02,22,20,13,-1.80
2018,02,22,20,14,-1.80
2018,02,22,20,15,-1.80
2018,02,22,20,16,-1.80
2018,02,22,20,17,-1.80
2018,02,22,20,18,-1.80
2018,02,22,20,19,-1.80
2018,02,22,20,20,-1.90
2018,02,22,20,21,-1.90
2018,02,22,20,22,-1.90
2018,02,22,20,23,-1.90
2018,02,22,20,24,-1.90
2018,02,22,20,25,-1.90
2018,02,22,20,26,-1.90
2018,02,22,20,27,-1.90
2018,02,22,20,28,-1.90
2018,02,22,20,29,-1.90
2018,02,22,20,30,-2.00
2018,02,22,20,31,-2.00
2018,02,22,20,32,-2.00
2018,02,22,20,33,-2.00
2018,02,22,20,34,-2.10
2018,02,22,20,35,-2.10
2018,02,22,20,36,-2.10
2018,02,22,20,37,-2.10
2018,02,22,20,38,-2.10
2018,02,22,20,39,-2.10
2018,02,22,20,40,-2.10
2018,02,22,20,41,-2.10
2018,02,22,20,42,-2.10
2018,02,22,20,43,-2.10
2018,02,22,20,44,-2.10
2018,02,22,20,45,-2.10
2018,02,22,20,46,-2.10
2018,02,22,20,47,-2.10
2018,02,22,20,48,-2.10
2018,02,22,20,49,-2.10
2018,02,22,20,50,-2.10
2018,02,22,20,51,-2.10
2018,02,22,20,52,-2.10
2018,02,22,20,53,-2.10
2018,02,22,20,54,-2.10
2018,02,22,20,55,-2.10
2018,02,22,20,56,-2.10
2018,02,22,20,57,-2.10
2018,02,22,20,58,-2.20
2018,02,22,20,59,-2.20
2018,02,22,21,00,-2.20
2018,02,22,21,01,-2.20
2018,02,22,21,02,-2.20
2018,02,22,21,03,-2.20